Regional Weather Roundup
Issued by NWS

Home | Current Version | Previous Version | Text Only | Print | Product List | Glossary On
Versions: 1 2 3 4 5 6 7 8 9 10 11 12 13 14 15 16 17 18 19 20 21 22 23 24 25 26 27
000
ASUS44 KBMX 280110
RWRAL

ALABAMA REGIONAL WEATHER ROUNDUP
NATIONAL WEATHER SERVICE BIRMINGHAM AL
800 PM CDT MON MAR 27 2017

NOTE: "FAIR" INDICATES FEW OR NO CLOUDS BELOW 12,000 FEET
WITH NO SIGNIFICANT WEATHER AND/OR OBSTRUCTIONS TO VISIBILITY.

THE REMARK "TC" DENOTES TEMPERATURE IN DEGREES CELSIUS.

ALZ001>011-014-016>018-020-280200-
NORTH ALABAMA

CITY           SKY/WX    TMP DP  RH WIND       PRES   REMARKS
MUSCLE SHOALS  CLOUDY    64  59  83 S7        29.82F
HUNTSVILLE     CLOUDY    63  61  93 SE3       29.85S
DECATUR        CLOUDY    61  60  97 E5        29.85S
HALEYVILLE     FAIR      62  60  93 S5        29.89R
GADSDEN        TSTM      65  61  87 SE5       29.89F
$$

ALZ012-013-022-023-030>036-040>044-280200-
WEST CENTRAL ALABAMA

CITY           SKY/WX    TMP DP  RH WIND       PRES   REMARKS
TUSCALOOSA     MOCLDY    68  61  78 S8        29.91R
$$

ALZ015-024>027-033>036-040>044-280200-
CENTRAL ALABAMA

CITY           SKY/WX    TMP DP  RH WIND       PRES   REMARKS
BIRMINGHAM     TSTM      66  61  84 S6G32     29.94R
MONTGOMERY     MOCLDY    76  56  49 S5        29.94R
SHELBY CO ARPT TSTM      71  63  75 SW10G21   29.94R
MAXWELL AFB    CLOUDY    75  59  57 SW7       29.94R
GREENVILLE     FAIR      74  58  57 SW12G18   29.94S
$$

ALZ019-021-028-029-037-038-045>048-280200-
EAST CENTRAL ALABAMA

CITY           SKY/WX    TMP DP  RH WIND       PRES   REMARKS
ANNISTON       CLOUDY    73  56  54 SW5       29.89S
ALEXANDER CITY MOCLDY    74  56  53 S6        29.93S
AUBURN         PTCLDY    72  56  57 S6        29.96S
$$

ALZ051>064-280200-
SOUTHWEST ALABAMA

CITY           SKY/WX    TMP DP  RH WIND       PRES   REMARKS
MOBILE         CLOUDY    71  65  81 S8        29.98R
BROOKLEY FIELD CLOUDY    73  69  87 S12       29.98S
EVERGREEN      CLOUDY    72  61  68 S10G20    29.97R
$$

ALZ049-050-065>069-280200-
SOUTHEAST ALABAMA

CITY           SKY/WX    TMP DP  RH WIND       PRES   REMARKS
DOTHAN         PTCLDY    73  56  54 SW12      30.01R
OZARK          CLEAR     71  58  64 S12       29.98R
TROY           CLOUDY    73  58  59 S8        29.96S
EUFAULA        FAIR      69  58  67 S3        29.93F
$$




USA.gov is the U.S. government's official web portal to all federal, state and local government web resources and services.